Weather History for Deer Park, WA

Change the Weather History Date:

Saturday, January 25, 2014

  Actual Average Record
Temperature  
Mean Temperature 30 °F 28 °F  
Max Temperature 31 °F 35 °F 46 °F (2005)
Min Temperature 28 °F 22 °F -3 °F (2009)
Degree Days  
Heating Degree Days 35 37  
Month to date heating degree days 866 953  
Since 1 July heating degree days 4077 4180  
Cooling Degree Days 0 0  
Month to date cooling degree days 0 0  
Year to date cooling degree days 0 0  
Moisture  
Dew Point 27 °F    
Average Humidity 89    
Maximum Humidity 92    
Minimum Humidity 85    
Precipitation  
Precipitation 0.00 in 0.06 in 0.19 in (2003)
Month to date precipitation 1.04 2.24  
Year to date precipitation 1.04 2.24  
Sea Level Pressure  
Sea Level Pressure 30.44 in    
Wind  
Wind Speed 3 mph (South)    
Max Wind Speed 8 mph    
Max Gust Speed 10 mph    
Visibility 7 miles    
Events      
T = Trace of Precipitation, MM = Missing Value Source: NWS Daily Summary

Daily Weather History Graph

Daily Weather History Graph

Search for Another Location

Airport:

Trip Planner

Search our weather history database for the weather conditions in past years. The results will help you decide how hot, cold, wet, or windy it might be!

Date:

Astronomy

Jan. 25, 2014 Rise Set
Actual Time 7:25 AM PST 4:39 PM PST
Civil Twilight 6:51 AM PST 5:13 PM PST
Nautical Twilight 6:13 AM PST 5:50 PM PST
Astronomical Twilight 5:37 AM PST 6:27 PM PST
Moon 2:01 AM PST (1/25) 11:43 AM PST (1/25)
Length of Visible Light 10h 21m
Length of Day
9h 13m
Waning Crescent, 33% of the Moon is Illuminated
Jan 25
Waning Crescent
Jan 30
New
Feb 6
First Quarter
Feb 14
Full
Feb 22
Last Quarter

Hourly Weather History & Observations

Time (PST) Temp. Windchill Dew Point Humidity Pressure Visibility Wind Dir Wind Speed Gust Speed Precip Events Conditions
12:53 AM 30.0 °F 25.2 °F 26.1 °F 85% 30.57 in 10.0 mi North 4.6 mph - N/A   Overcast
1:53 AM 30.0 °F 25.2 °F 26.1 °F 85% 30.57 in 10.0 mi North 4.6 mph - N/A   Overcast
2:53 AM 30.0 °F - 27.0 °F 88% 30.57 in 10.0 mi Calm Calm - N/A   Overcast
3:53 AM 30.0 °F - 27.0 °F 88% 30.55 in 10.0 mi Calm Calm - N/A   Overcast
4:12 AM 30.0 °F - 27.0 °F 88% 30.47 in 10.0 mi Calm Calm - N/A   Overcast
4:53 AM 30.0 °F - 27.0 °F 88% 30.54 in 10.0 mi Calm Calm - N/A   Overcast
5:50 AM 30.2 °F - 26.6 °F 86% 30.45 in 10.0 mi Calm Calm - N/A   Overcast
5:53 AM 30.0 °F - 27.0 °F 88% 30.53 in 10.0 mi Calm Calm - N/A   Overcast
6:53 AM 30.0 °F - 27.0 °F 88% 30.52 in 9.0 mi Calm Calm - N/A   Overcast
7:33 AM 28.9 °F - 27.0 °F 92% 30.45 in 5.0 mi North - - N/A   Overcast
7:53 AM 28.9 °F - 27.0 °F 92% 30.53 in 4.0 mi North - - N/A   Overcast
8:09 AM 28.9 °F - 28.0 °F 96% 30.45 in 3.0 mi Calm Calm - N/A   Overcast
8:53 AM 28.9 °F 25.2 °F 27.0 °F 92% 30.53 in 3.0 mi West 3.5 mph - N/A   Overcast
9:14 AM 28.9 °F 23.9 °F 28.0 °F 96% 30.45 in 2.5 mi WSW 4.6 mph - N/A   Overcast
9:33 AM 30.0 °F 26.5 °F 27.0 °F 88% 30.45 in 3.0 mi SW 3.5 mph - N/A   Overcast
9:53 AM 28.9 °F 25.2 °F 27.0 °F 92% 30.53 in 4.0 mi SW 3.5 mph - N/A   Overcast
10:25 AM 30.0 °F 26.5 °F 27.0 °F 88% 30.45 in 6.0 mi SSW 3.5 mph - N/A   Overcast
10:53 AM 28.9 °F 22.8 °F 27.0 °F 92% 30.53 in 4.0 mi SW 5.8 mph - N/A   Overcast
11:53 AM 28.9 °F 23.9 °F 27.0 °F 92% 30.51 in 7.0 mi SSW 4.6 mph - N/A   Overcast
12:49 PM 30.2 °F 25.4 °F 26.6 °F 86% 30.42 in 10.0 mi SSW 4.6 mph - N/A   Overcast
12:53 PM 30.0 °F 26.5 °F 27.0 °F 88% 30.49 in 10.0 mi South 3.5 mph - N/A   Overcast
1:53 PM 28.9 °F 25.2 °F 26.1 °F 89% 30.48 in 10.0 mi South 3.5 mph - N/A   Overcast
2:34 PM 28.9 °F - 26.1 °F 89% 30.40 in 8.0 mi North - - N/A   Overcast
2:53 PM 28.9 °F - 26.1 °F 89% 30.47 in 8.0 mi North - - N/A   Overcast
3:40 PM 28.9 °F 22.8 °F 26.1 °F 89% 30.38 in 7.0 mi SE 5.8 mph - N/A   Overcast
3:53 PM 28.9 °F 22.8 °F 26.1 °F 89% 30.46 in 8.0 mi SSE 5.8 mph - N/A   Overcast
4:53 PM 28.9 °F 23.9 °F 26.1 °F 89% 30.45 in 8.0 mi South 4.6 mph - N/A   Overcast
5:15 PM 28.9 °F 25.2 °F 26.1 °F 89% 30.37 in 6.0 mi SSE 3.5 mph - N/A   Overcast
5:28 PM 28.9 °F - 26.1 °F 89% 30.37 in 7.0 mi Calm Calm - N/A   Overcast
5:53 PM 28.0 °F 24.2 °F 27.0 °F 96% 30.44 in 5.0 mi SE 3.5 mph - N/A   Overcast
6:46 PM 28.0 °F 24.2 °F 26.1 °F 92% 30.35 in 6.0 mi ESE 3.5 mph - N/A   Overcast
6:53 PM 28.0 °F - 27.0 °F 96% 30.42 in 7.0 mi Calm Calm - N/A   Overcast
7:53 PM 28.0 °F 24.2 °F 26.1 °F 92% 30.42 in 7.0 mi SE 3.5 mph - N/A   Overcast
8:53 PM 28.0 °F 22.8 °F 26.1 °F 92% 30.40 in 7.0 mi South 4.6 mph - N/A   Overcast
9:26 PM 28.0 °F 24.2 °F 26.1 °F 92% 30.32 in 6.0 mi SE 3.5 mph - N/A   Overcast
9:38 PM 28.0 °F 24.2 °F 26.1 °F 92% 30.31 in 6.0 mi SSE 3.5 mph - N/A   Overcast
9:53 PM 28.0 °F 24.2 °F 26.1 °F 92% 30.39 in 5.0 mi South 3.5 mph - N/A   Overcast
10:07 PM 28.0 °F 24.2 °F 26.1 °F 92% 30.31 in 6.0 mi South 3.5 mph - N/A   Overcast
10:36 PM 28.0 °F - 26.1 °F 92% 30.31 in 6.0 mi Calm Calm - N/A   Overcast
10:53 PM 28.0 °F 24.2 °F 26.1 °F 92% 30.38 in 6.0 mi South 3.5 mph - N/A   Overcast
11:09 PM 28.0 °F 24.2 °F 26.1 °F 92% 30.30 in 6.0 mi South 3.5 mph - N/A   Overcast
11:53 PM 28.0 °F 24.2 °F 26.1 °F 92% 30.37 in 7.0 mi South 3.5 mph - N/A   Overcast